Time,TemperatureF,DewpointF,PressureIn,WindDirection,WindDirectionDegrees,WindSpeedMPH,WindSpeedGustMPH,Humidity,HourlyPrecipIn,Conditions,Clouds,dailyrainin,SoftwareType,DateUTC
2013-05-22 00:03:00,51.1,50.8,29.91,NNE,22,1.1,-999.0,99,-99.99,,,0.00,Acu-Link.com,2013-05-22 04:03:00,
2013-05-22 00:19:00,50.7,50.4,29.95,South,180,2.7,-999.0,99,-99.99,,,0.00,Acu-Link.com,2013-05-22 04:19:00,
2013-05-22 00:34:00,50.4,50.1,29.94,NW,315,2.2,-999.0,99,-99.99,,,0.00,Acu-Link.com,2013-05-22 04:34:00,
2013-05-22 00:49:00,50.4,50.1,29.92,ESE,112,4.2,-999.0,99,-99.99,,,0.00,Acu-Link.com,2013-05-22 04:49:00,
2013-05-22 01:04:00,50.0,49.7,29.89,ESE,112,1.1,-999.0,99,-99.99,,,0.00,Acu-Link.com,2013-05-22 05:04:00,
2013-05-22 01:19:00,50.0,49.7,29.87,ENE,67,2.7,-999.0,99,-99.99,,,0.00,Acu-Link.com,2013-05-22 05:19:00,
2013-05-22 01:35:00,50.0,49.7,29.87,NNE,22,0.0,-999.0,99,-99.99,,,0.00,Acu-Link.com,2013-05-22 05:35:00,
2013-05-22 01:50:00,49.8,49.5,29.86,NNW,337,2.2,-999.0,99,-99.99,,,0.00,Acu-Link.com,2013-05-22 05:50:00,
2013-05-22 02:05:00,49.8,49.5,29.85,ESE,112,2.2,-999.0,99,-99.99,,,0.00,Acu-Link.com,2013-05-22 06:05:00,
2013-05-22 02:20:00,49.8,49.5,29.83,SSW,202,1.7,-999.0,99,-99.99,,,0.00,Acu-Link.com,2013-05-22 06:20:00,
2013-05-22 02:35:00,49.8,49.5,29.83,West,270,0.0,-999.0,99,-99.99,,,0.00,Acu-Link.com,2013-05-22 06:35:00,
2013-05-22 02:51:00,50.0,49.7,29.84,East,90,0.0,-999.0,99,-99.99,,,0.00,Acu-Link.com,2013-05-22 06:51:00,
2013-05-22 03:06:00,50.0,49.7,29.85,SW,225,0.0,-999.0,99,-99.99,,,0.00,Acu-Link.com,2013-05-22 07:06:00,
2013-05-22 03:21:00,50.2,49.9,29.86,SW,225,1.1,-999.0,99,-99.99,,,0.00,Acu-Link.com,2013-05-22 07:21:00,
2013-05-22 03:37:00,50.4,50.1,29.91,SSE,157,4.2,-999.0,99,-99.99,,,0.00,Acu-Link.com,2013-05-22 07:37:00,
2013-05-22 03:52:00,50.0,49.7,29.90,West,270,1.7,-999.0,99,-99.99,,,0.01,Acu-Link.com,2013-05-22 07:52:00,
2013-05-22 04:07:00,50.0,49.7,29.90,East,90,0.0,-999.0,99,-99.99,,,0.01,Acu-Link.com,2013-05-22 08:07:00,
2013-05-22 04:24:00,50.0,49.7,29.90,SE,135,1.7,-999.0,99,-99.99,,,0.01,Acu-Link.com,2013-05-22 08:24:00,
2013-05-22 04:39:00,50.4,50.1,29.86,SE,135,1.7,-999.0,99,-99.99,,,0.01,Acu-Link.com,2013-05-22 08:39:00,
2013-05-22 04:54:00,50.4,50.1,29.85,East,90,0.0,-999.0,99,-99.99,,,0.01,Acu-Link.com,2013-05-22 08:54:00,
2013-05-22 05:09:00,50.4,50.1,29.84,West,270,0.0,-999.0,99,-99.99,,,0.01,Acu-Link.com,2013-05-22 09:09:00,
2013-05-22 05:24:00,50.5,50.2,29.83,WSW,247,0.0,-999.0,99,-99.99,,,0.01,Acu-Link.com,2013-05-22 09:24:00,
2013-05-22 05:40:00,50.5,50.2,29.84,South,180,0.0,-999.0,99,-99.99,,,0.01,Acu-Link.com,2013-05-22 09:40:00,
2013-05-22 05:55:00,50.5,50.2,29.82,NNE,22,1.1,-999.0,99,-99.99,,,0.01,Acu-Link.com,2013-05-22 09:55:00,
2013-05-22 06:10:00,50.7,50.4,29.82,South,180,0.0,-999.0,99,-99.99,,,0.03,Acu-Link.com,2013-05-22 10:10:00,
2013-05-22 06:25:00,50.9,50.6,29.84,East,90,1.1,-999.0,99,-99.99,,,0.03,Acu-Link.com,2013-05-22 10:25:00,
2013-05-22 06:40:00,50.9,50.6,29.83,West,270,1.7,-999.0,99,-99.99,,,0.03,Acu-Link.com,2013-05-22 10:40:00,
2013-05-22 06:55:00,51.1,50.8,29.83,South,180,0.0,-999.0,99,-99.99,,,0.04,Acu-Link.com,2013-05-22 10:55:00,
2013-05-22 07:11:00,51.4,51.1,29.83,South,180,1.1,-999.0,99,-99.99,,,0.07,Acu-Link.com,2013-05-22 11:11:00,
2013-05-22 07:26:00,51.6,51.3,29.80,East,90,1.7,-999.0,99,-99.99,,,0.09,Acu-Link.com,2013-05-22 11:26:00,
2013-05-22 07:41:00,52.7,52.4,29.82,ESE,112,0.0,-999.0,99,-99.99,,,0.09,Acu-Link.com,2013-05-22 11:41:00,
2013-05-22 07:56:00,53.4,53.1,29.80,WSW,247,1.7,-999.0,99,-99.99,,,0.09,Acu-Link.com,2013-05-22 11:56:00,
2013-05-22 08:12:00,54.3,54.0,29.79,West,270,1.7,-999.0,99,-99.99,,,0.09,Acu-Link.com,2013-05-22 12:12:00,
2013-05-22 08:27:00,54.9,54.6,29.83,ESE,112,1.1,-999.0,99,-99.99,,,0.09,Acu-Link.com,2013-05-22 12:27:00,
2013-05-22 08:42:00,56.8,56.5,29.82,NW,315,0.0,-999.0,99,-99.99,,,0.09,Acu-Link.com,2013-05-22 12:42:00,
2013-05-22 08:57:00,56.3,56.0,29.83,SW,225,1.7,-999.0,99,-99.99,,,0.09,Acu-Link.com,2013-05-22 12:57:00,
2013-05-22 09:12:00,57.7,57.4,29.84,SSW,202,0.0,-999.0,99,-99.99,,,0.09,Acu-Link.com,2013-05-22 13:12:00,
2013-05-22 09:28:00,58.3,57.5,29.84,SSW,202,2.2,-999.0,97,-99.99,,,0.09,Acu-Link.com,2013-05-22 13:28:00,
2013-05-22 09:43:00,59.2,58.3,29.83,NNE,22,2.2,-999.0,97,-99.99,,,0.09,Acu-Link.com,2013-05-22 13:43:00,
2013-05-22 09:58:00,59.0,58.1,29.83,SSE,157,0.0,-999.0,97,-99.99,,,0.09,Acu-Link.com,2013-05-22 13:58:00,
2013-05-22 10:13:00,59.5,58.4,29.84,South,180,0.0,-999.0,96,-99.99,,,0.09,Acu-Link.com,2013-05-22 14:13:00,
2013-05-22 10:28:00,60.1,59.2,29.85,SW,225,2.7,-999.0,97,-99.99,,,0.09,Acu-Link.com,2013-05-22 14:28:00,
2013-05-22 10:44:00,60.8,59.7,29.84,NW,315,2.2,-999.0,96,-99.99,,,0.09,Acu-Link.com,2013-05-22 14:44:00,
2013-05-22 10:59:00,61.2,60.0,29.85,ESE,112,2.2,-999.0,96,-99.99,,,0.09,Acu-Link.com,2013-05-22 14:59:00,
2013-05-22 11:14:00,62.1,60.6,29.83,West,270,1.7,-999.0,95,-99.99,,,0.09,Acu-Link.com,2013-05-22 15:14:00,
2013-05-22 11:29:00,63.1,61.0,29.85,ENE,67,1.7,-999.0,93,-99.99,,,0.09,Acu-Link.com,2013-05-22 15:29:00,
2013-05-22 11:44:00,65.3,62.6,29.84,ESE,112,2.7,-999.0,91,-99.99,,,0.09,Acu-Link.com,2013-05-22 15:44:00,
2013-05-22 12:00:00,65.3,62.3,29.84,WSW,247,2.7,-999.0,90,-99.99,,,0.09,Acu-Link.com,2013-05-22 16:00:00,
2013-05-22 12:15:00,67.5,63.2,29.83,WNW,292,0.0,-999.0,86,-99.99,,,0.09,Acu-Link.com,2013-05-22 16:15:00,
2013-05-22 12:30:00,66.7,63.4,29.83,West,270,3.7,-999.0,89,-99.99,,,0.09,Acu-Link.com,2013-05-22 16:30:00,
2013-05-22 12:45:00,68.0,64.3,29.82,WNW,292,2.7,-999.0,88,-99.99,,,0.09,Acu-Link.com,2013-05-22 16:45:00,
2013-05-22 13:00:00,68.7,64.3,29.84,ENE,67,1.1,-999.0,86,-99.99,,,0.09,Acu-Link.com,2013-05-22 17:00:00,
2013-05-22 13:16:00,69.8,64.7,29.82,NNE,22,2.7,-999.0,84,-99.99,,,0.09,Acu-Link.com,2013-05-22 17:16:00,
2013-05-22 13:31:00,70.7,65.3,29.83,NE,45,2.2,-999.0,83,-99.99,,,0.09,Acu-Link.com,2013-05-22 17:31:00,
2013-05-22 13:46:00,72.1,66.3,29.82,East,90,2.2,-999.0,82,-99.99,,,0.09,Acu-Link.com,2013-05-22 17:46:00,
2013-05-22 14:01:00,72.7,66.9,29.80,WSW,247,2.2,-999.0,82,-99.99,,,0.09,Acu-Link.com,2013-05-22 18:01:00,
2013-05-22 14:17:00,76.5,68.7,29.80,WNW,292,1.7,-999.0,77,-99.99,,,0.09,Acu-Link.com,2013-05-22 18:17:00,
2013-05-22 14:32:00,75.9,68.2,29.80,East,90,1.1,-999.0,77,-99.99,,,0.09,Acu-Link.com,2013-05-22 18:32:00,
2013-05-22 14:47:00,77.0,68.5,29.80,SSW,202,1.7,-999.0,75,-99.99,,,0.09,Acu-Link.com,2013-05-22 18:47:00,
2013-05-22 15:02:00,77.5,68.1,29.80,NE,45,0.0,-999.0,73,-99.99,,,0.09,Acu-Link.com,2013-05-22 19:02:00,
2013-05-22 15:17:00,75.2,67.9,29.80,SSW,202,1.7,-999.0,78,-99.99,,,0.09,Acu-Link.com,2013-05-22 19:17:00,
2013-05-22 15:33:00,74.5,67.9,29.81,SSW,202,1.1,-999.0,80,-99.99,,,0.09,Acu-Link.com,2013-05-22 19:33:00,
2013-05-22 15:48:00,77.5,68.5,29.80,ENE,67,2.7,-999.0,74,-99.99,,,0.09,Acu-Link.com,2013-05-22 19:48:00,
2013-05-22 16:03:00,76.8,68.3,29.79,East,90,1.1,-999.0,75,-99.99,,,0.09,Acu-Link.com,2013-05-22 20:03:00,
2013-05-22 16:18:00,76.1,68.4,29.79,NNE,22,0.0,-999.0,77,-99.99,,,0.09,Acu-Link.com,2013-05-22 20:18:00,
2013-05-22 16:33:00,77.0,69.2,29.79,SW,225,0.0,-999.0,77,-99.99,,,0.09,Acu-Link.com,2013-05-22 20:33:00,
2013-05-22 16:49:00,75.6,68.2,29.78,ESE,112,0.0,-999.0,78,-99.99,,,0.09,Acu-Link.com,2013-05-22 20:49:00,
2013-05-22 17:04:00,76.8,68.6,29.79,WSW,247,1.7,-999.0,76,-99.99,,,0.09,Acu-Link.com,2013-05-22 21:04:00,
2013-05-22 17:19:00,75.6,68.6,29.77,East,90,0.0,-999.0,79,-99.99,,,0.09,Acu-Link.com,2013-05-22 21:19:00,
2013-05-22 17:34:00,73.9,65.8,29.77,SSE,157,3.7,-999.0,76,-99.99,,,0.09,Acu-Link.com,2013-05-22 21:34:00,
2013-05-22 17:49:00,72.0,64.8,29.77,East,90,2.7,-999.0,78,-99.99,,,0.09,Acu-Link.com,2013-05-22 21:49:00,
2013-05-22 18:05:00,70.5,63.7,29.77,NE,45,2.2,-999.0,79,-99.99,,,0.09,Acu-Link.com,2013-05-22 22:05:00,
2013-05-22 18:20:00,70.0,63.9,29.77,ESE,112,1.1,-999.0,81,-99.99,,,0.09,Acu-Link.com,2013-05-22 22:20:00,
2013-05-22 18:35:00,69.6,63.9,29.78,East,90,0.0,-999.0,82,-99.99,,,0.09,Acu-Link.com,2013-05-22 22:35:00,
2013-05-22 18:50:00,68.4,62.3,29.79,SE,135,0.0,-999.0,81,-99.99,,,0.09,Acu-Link.com,2013-05-22 22:50:00,
2013-05-22 19:05:00,66.7,61.0,29.80,SSE,157,2.2,-999.0,82,-99.99,,,0.09,Acu-Link.com,2013-05-22 23:05:00,
2013-05-22 19:21:00,65.3,60.0,29.82,NE,45,1.1,-999.0,83,-99.99,,,0.09,Acu-Link.com,2013-05-22 23:21:00,
2013-05-22 19:36:00,64.0,59.1,29.81,South,180,0.0,-999.0,84,-99.99,,,0.09,Acu-Link.com,2013-05-22 23:36:00,
2013-05-22 19:51:00,63.0,58.7,29.81,North,0,0.0,-999.0,86,-99.99,,,0.09,Acu-Link.com,2013-05-22 23:51:00,
2013-05-22 20:06:00,61.7,57.8,29.83,SSE,157,0.0,-999.0,87,-99.99,,,0.09,Acu-Link.com,2013-05-23 00:06:00,
2013-05-22 20:22:00,60.6,56.7,29.82,SW,225,1.1,-999.0,87,-99.99,,,0.09,Acu-Link.com,2013-05-23 00:22:00,
2013-05-22 20:37:00,59.7,56.5,29.83,South,180,2.7,-999.0,89,-99.99,,,0.09,Acu-Link.com,2013-05-23 00:37:00,
2013-05-22 20:52:00,59.2,56.3,29.82,North,0,2.2,-999.0,90,-99.99,,,0.09,Acu-Link.com,2013-05-23 00:52:00,
2013-05-22 21:07:00,58.6,55.7,29.83,SE,135,0.0,-999.0,90,-99.99,,,0.09,Acu-Link.com,2013-05-23 01:07:00,
2013-05-22 21:22:00,58.5,55.9,29.83,SSE,157,0.0,-999.0,91,-99.99,,,0.09,Acu-Link.com,2013-05-23 01:22:00,
2013-05-22 21:38:00,58.3,56.0,29.85,SE,135,0.0,-999.0,92,-99.99,,,0.09,Acu-Link.com,2013-05-23 01:38:00,
2013-05-22 21:53:00,58.1,55.8,29.84,SSW,202,0.0,-999.0,92,-99.99,,,0.09,Acu-Link.com,2013-05-23 01:53:00,
2013-05-22 22:08:00,57.6,55.9,29.86,SW,225,0.0,-999.0,94,-99.99,,,0.09,Acu-Link.com,2013-05-23 02:08:00,
2013-05-22 22:23:00,57.2,55.8,29.85,East,90,0.0,-999.0,95,-99.99,,,0.09,Acu-Link.com,2013-05-23 02:23:00,
2013-05-22 22:38:00,56.8,56.0,29.85,SSE,157,0.0,-999.0,97,-99.99,,,0.09,Acu-Link.com,2013-05-23 02:38:00,
2013-05-22 22:54:00,56.5,55.7,29.85,North,0,0.0,-999.0,97,-99.99,,,0.09,Acu-Link.com,2013-05-23 02:54:00,
2013-05-22 23:09:00,56.3,55.5,29.84,NE,45,0.0,-999.0,97,-99.99,,,0.09,Acu-Link.com,2013-05-23 03:09:00,
2013-05-22 23:24:00,55.9,55.3,29.85,ESE,112,0.0,-999.0,98,-99.99,,,0.09,Acu-Link.com,2013-05-23 03:24:00,
2013-05-22 23:40:00,55.9,55.3,29.83,East,90,0.0,-999.0,98,-99.99,,,0.09,Acu-Link.com,2013-05-23 03:40:00,
2013-05-22 23:55:00,55.8,55.2,29.83,WSW,247,0.0,-999.0,98,-99.99,,,0.09,Acu-Link.com,2013-05-23 03:55:00,